This is the latest recevied weather packets stored in our database for station/object N4QD-13. If no packets are shown the sender has not sent any weather packets the latest 10 day(s).
| Time | Temp. | Humidity | Pressure | Rain* | Wind** | Luminosity | Snow |
|---|---|---|---|---|---|---|---|
| 1777993244 | 23.89° C | 50% | 1014.2 hPa | 0 mm | - | 634 W/m² | - |
| 1777992940 | 23.89° C | 49% | 1014.2 hPa | 0 mm | - | 612 W/m² | - |
| 1777992639 | 23.89° C | 51% | 1014.3 hPa | 0 mm | - | 629 W/m² | - |
| 1777992336 | 23.89° C | 52% | 1014.2 hPa | 0 mm | - | 630 W/m² | - |
| 1777992033 | 23.89° C | 52% | 1014.3 hPa | 0 mm | - | 609 W/m² | - |
| 1777991731 | 23.33° C | 53% | 1014 hPa | 0 mm | - | 610 W/m² | - |
| 1777991428 | 23.33° C | 53% | 1014.1 hPa | 0 mm | - | 592 W/m² | - |
| 1777991125 | 22.78° C | 53% | 1014 hPa | 0 mm | - | 574 W/m² | - |
| 1777990822 | 22.78° C | 53% | 1014.2 hPa | 0 mm | - | 568 W/m² | - |
| 1777990520 | 22.78° C | 52% | 1014 hPa | 0 mm | - | 563 W/m² | - |
| 1777989913 | 22.78° C | 54% | 1014.1 hPa | 0 mm | - | 534 W/m² | - |
| 1777989610 | 22.22° C | 55% | 1014.4 hPa | 0 mm | - | 531 W/m² | - |
| 1777989306 | 22.22° C | 54% | 1014.3 hPa | 0 mm | - | 525 W/m² | - |
| 1777989003 | 22.22° C | 54% | 1014.2 hPa | 0 mm | - | 530 W/m² | - |
| 1777988699 | 22.22° C | 54% | 1014.2 hPa | 0 mm | - | 495 W/m² | - |
| 1777988395 | 22.22° C | 54% | 1014.3 hPa | 0 mm | - | 494 W/m² | - |
| 1777988093 | 21.67° C | 55% | 1014.3 hPa | 0 mm | - | 482 W/m² | - |
| 1777987788 | 21.67° C | 55% | 1014.5 hPa | 0 mm | - | 468 W/m² | - |
| 1777987485 | 21.67° C | 57% | 1014.5 hPa | 0 mm | - | 468 W/m² | - |
| 1777987183 | 21.67° C | 58% | 1014.5 hPa | 0 mm | - | 460 W/m² | - |
| 1777986880 | 21.11° C | 62% | 1014.5 hPa | 0 mm | - | 437 W/m² | - |
| 1777986578 | 21.11° C | 63% | 1014.6 hPa | 0 mm | - | 429 W/m² | - |
| 1777986276 | 20.56° C | 63% | 1014.6 hPa | 0 mm | - | 413 W/m² | - |
| 1777985972 | 20° C | 63% | 1014.7 hPa | 0 mm | - | 386 W/m² | - |
| 1777985670 | 19.44° C | 67% | 1014.7 hPa | 0 mm | - | 351 W/m² | - |
* Rain latest hour (hover to see other rain measurements)
** Current wind speed in m/s (hover to see current wind gust speed)